Location: Misciano
(43.5000°N, 11.9500°E)
Time: 16:01:53
(UTC+00:00)

Cosmos 2360 Rocket - Pass Details

Date: 13 August 2020
Orbit: 833 x 845 km, 71.0° (Epoch: 18 September)

Event Time Altitude Azimuth Distance (km) Brightness Sun altitude
Rises 20:54:03 0° 338° (NNW) 3,414 6.6 -23.6°
Reaches altitude 10° 20:56:35 10° 343° (NNW) 2,474 5.6 -23.9°
Maximum altitude 21:02:08 53° 61° (ENE) 1,028 2.5 -24.5°
Enters shadow 21:02:55 49° 90° (E) 1,076 2.4 -24.6°
